Terminal Aerodrome Forecast
Issued by NWS

Home | Current Version | Previous Version | Text Only | Print | Product List | Glossary On
Versions: 1 2 3 4 5 6 7 8 9 10 11 12 13 14 15 16 17 18 19 20 21
000
FTUS41 KBTV 251135
TAFMPV
TAF
KMPV 251135Z 2512/2612 00000KT P6SM FEW250
     FM251800 21006KT P6SM BKN050
     FM252300 21005KT P6SM -SHRA OVC030
     FM260200 26006KT P6SM OVC025=

USA.gov is the U.S. government's official web portal to all federal, state and local government web resources and services.